AirNav  
 
 929 users online  

3O4 Sayre Municipal Airport
Sayre, Oklahoma, USA

GOING TO SAYRE?


FAA INFORMATION EFFECTIVE 25 MARCH 2021

Location

FAA Identifier: 3O4
Lat/Long: 35-10-03.7530N 099-39-28.1020W
35-10.062550N 099-39.468367W
35.1677092,-99.6578061
(estimated)
Elevation: 1937.2 ft. / 590 m (estimated)
Variation: 08E (1985)
From city: 7 miles S of SAYRE, OK
Time zone: UTC -5 (UTC -6 during Standard Time)
Zip code: 73662

Airport Operations

Airport use: Open to the public
Activation date: 11/1946
Control tower: no
ARTCC: FORT WORTH CENTER
FSS: MC ALESTER FLIGHT SERVICE STATION
NOTAMs facility: MLC (NOTAM-D service available)
Attendance: UNATNDD
Wind indicator: lighted
Segmented circle: no
Lights: ACTVT MIRL RWY 17/35 - CTAF.
Beacon: white-green (lighted land airport)
Operates sunset to sunrise.

Airport Communications

CTAF: 122.9

Nearby radio navigation aids

VOR radial/distance  VOR name  Freq  Var
BFVr254/22.5BURNS FLAT VORTAC110.0005E
HBRr292/34.3HOBART VORTAC111.8010E
LTSr323/35.8ALTUS VORTAC109.8005E

Airport Services

Fuel available: 100LL
SELF SVC FUEL AVBL 24 HRS WITH CREDIT CARD.
Parking: tiedowns
Airframe service: NONE
Powerplant service: NONE
Bottled oxygen: NONE
Bulk oxygen: NONE

Runway Information

Runway 17/35

Dimensions: 4276 x 130 ft. / 1303 x 40 m
Surface: concrete, in good condition
Weight bearing capacity: 
Single wheel: 30.0
Runway edge lights: medium intensity
RUNWAY 17  RUNWAY 35
Latitude: 35-10.414953N35-09.710162N
Longitude: 099-39.465457W099-39.471280W
Elevation: 1909.8 ft.1937.2 ft.
Traffic pattern: leftleft
Runway heading: 172 magnetic, 180 true352 magnetic, 360 true
Markings: basic, in good conditionbasic, in good condition
Visual slope indicator: 2-light PAPI on left (3.00 degrees glide path)2-light PAPI on left (3.00 degrees glide path)
Touchdown point: yes, no lightsyes, no lights

Airport Ownership and Management from official FAA records

Ownership: Publicly-owned
Owner: CITY OF SAYRE
102 W MAIN
SAYRE, OK 73662
Phone 580-928-2260
Manager: GUY HYLTON
102 W. MAIN, 12714 N. 1860 RD.
SAYRE, OK 73662
Phone 580-928-8260
CITY MANAGER.

Airport Operational Statistics

Aircraft based on the field: 10
Single engine airplanes: 10
    
Aircraft operations: avg 40/week *
86% local general aviation
14% transient general aviation
* for 12-month period ending 26 August 2020

Additional Remarks

FOR CD CTC FORT WORTH ARTCC AT 817-858-7584.

Instrument Procedures

There are no published instrument procedures at 3O4.

Some nearby airports with instrument procedures:

2K4 - Scott Field Airport (18 nm S)
KELK - Elk City Regional Business Airport (20 nm NE)
KCSM - Clinton-Sherman Airport (25 nm NE)
O35 - Hollis Municipal Airport (30 nm SW)
T59 - Wheeler Municipal Airport (32 nm NW)
 
Loc | Ops | Rwys | IFR | FBO | Links
Com | Nav | Svcs | Stats | Notes

AirBoss

 
Area around 3O4 (Sayre Municipal Airport)
 
Road maps at: MapQuest Bing Google
 
Aerial photo
WARNING: Photo may not be current or correct
Aerial photo of 3O4 (Sayre Municipal Airport)
Photo by Dean Ritter, Aerial Oklahoma

Do you have a better or more recent aerial photo of Sayre Municipal Airport that you would like to share? If so, please send us your photo.

 
Sectional chart

 
Airport distance calculator
Flying to Sayre Municipal Airport? Find the distance to fly.

From to 3O4

Sunrise and sunset
Times for 18-Apr-2021
 Local
(UTC-5)
 Zulu
(UTC)
Morning civil twilight06:3711:37
Sunrise07:0412:04
Sunset20:1201:12
Evening civil twilight20:3901:39

Current date and time
Zulu (UTC)  18-Apr-2021 12:53:33
Local (UTC-5)  18-Apr-2021 07:53:33
 
METAR
KELK 
20nm NE 
181235Z AUTO 30009KT 10SM CLR 02/M01 A3022 RMK AO2 T00191008
KCSM 
25nm NE 
181153Z AUTO 29009KT 10SM CLR 03/00 A3017 RMK AO2 SLP217 T00280000 10039 20011 55000
KHBR 
32nm E 
181153Z AUTO 28007KT 10SM CLR 01/M01 A3018 RMK AO2 SLP224 T00111006 10050 20006 53002
KAXS 
32nm SE 
181235Z AUTO 33003KT 10SM CLR 02/01 A3022 RMK AO2 T00200006
KLTS 
36nm SE 
181156Z AUTO 30006KT 10SM CLR 03/00 A3018 RMK AO2 SLP222 T00260000 10063 20026 53005 $
TAF
KCSM 
25nm NE 
181124Z 1812/1912 32008G15KT P6SM FEW060 FM190000 19005KT P6SM SKC
NOTAMs
Click for the latest NOTAMs
NOTAMs are issued by the DoD/FAA and will open in a separate window not controlled by AirNav.

 

 
 

FBO, Fuel Providers, and Aircraft Ground Support

  
 Business Name 
 
 Contact 
 
 Services / Description 
 
Fuel Prices
 
Comments
  
Sayre Municipal Airport 580-928-2260
no information available

If you are affiliated with Sayre Municipal Airport and would like to show here your services, contact info, web link, logo, and more, click here
100LL
SS $3.75 
 Updated 09-Apr-2021
 
   write
SS=Self service
Update Fuel Prices
 

Would you like to see your business listed on this page?

 If your business provides an interesting product or service to pilots, flight crews, aircraft, or users of the Sayre Municipal Airport, you should consider listing it here.  To start the listing process, click on the button below
 
Add a business
 

Other Pages about Sayre Municipal Airport

Update a link
 
Copyright © AirNav, LLC. All rights reserved. Privacy Policy  Contact